[[{"header":{"parameterUnit":"m.s-1","parameterCategory":1,"la1":30.2991,"la2":30.254,"lo1":-89.0895,"lo2":-89.0444,"dx":0.0017,"dy":0.0017,"nx":28,"ny":28,"refTime":"2022-12-05T15:00:00:Z","depth":0,"parameterNumber":2,"parameterNumberName":"U-component_of_WINDS"},"data":[0,0,0,0,0,0,0,0,0,0,0,0,0,0,0,0,0,0,0,0,0,0,0,0,0,0,0,0,0,0,0,0,0,0,0,0,0,0,0,0,0,0,0,0,0,0,0,0,0,0,0,0,0,0,0,0,0,0,-0.4208,-0.4208,0,-0.4203,-0.4203,-0.4203,-0.4231,-0.4232,-0.4233,-0.4233,-0.4225,-0.4224,-0.4223,0,0,0,0,0,0,0,0,0,0,0,0,0,-0.4238,-0.4237,-0.4208,-0.4208,-0.4208,-0.4203,-0.4203,-0.4203,-0.4231,-0.4232,-0.4233,-0.4234,-0.4225,-0.4224,-0.4223,0,0,0,0,0,0,0,0,0,0,0,0,0,-0.4228,-0.4237,-0.4208,-0.4221,-0.4223,-0.4203,-0.4203,-0.4203,-0.4231,-0.4232,-0.4233,-0.4234,-0.4225,-0.4224,-0.4223,-0.4189,0,0,-0.4218,-0.4218,0,0,0,0,0,0,0,0,-0.4228,-0.4227,-0.422,-0.422,-0.4222,-0.4219,-0.4211,-0.4198,-0.423,-0.4227,-0.4233,-0.4235,-0.4222,-0.4221,-0.4217,-0.4189,-0.4189,-0.4218,-0.4217,-0.4216,-0.4216,0,0,0,0,0,0,0,-0.4229,-0.4227,-0.4206,-0.4219,-0.4221,-0.4226,-0.4226,-0.4208,-0.4218,-0.4228,-0.423,-0.4229,-0.4222,-0.4218,-0.4217,-0.4189,-0.4218,-0.4217,-0.4216,-0.4215,-0.4132,-0.413,0,0,0,0,0,0,-0.4228,-0.4227,-0.4206,-0.4206,-0.4228,-0.4225,-0.4225,-0.4219,-0.4218,-0.4219,-0.4228,-0.423,-0.422,-0.4219,-0.4217,-0.4177,-0.4217,-0.4215,-0.4214,-0.4133,-0.4131,-0.413,0,0,0,0,0,0,-0.4229,-0.4226,-0.4207,-0.4217,-0.4215,-0.4223,-0.4216,-0.4218,-0.4214,-0.4218,-0.422,-0.4222,-0.4221,-0.4219,-0.4196,-0.4177,-0.4214,-0.4213,-0.4135,-0.4132,-0.4131,-0.4098,0,0,0,0,0,0,-0.423,-0.4226,-0.4215,-0.4217,-0.4215,-0.4187,-0.4215,-0.4217,-0.4212,-0.4215,-0.4213,-0.4214,-0.4222,-0.4198,-0.4194,-0.4176,-0.4212,-0.4136,-0.4134,-0.4131,-0.4101,-0.4095,-0.409,0,0,0,0,0,-0.4231,-0.4205,-0.4214,-0.4212,-0.4201,-0.4186,-0.4185,-0.4195,-0.421,-0.4198,-0.42,-0.4214,-0.418,-0.4195,-0.4192,-0.4172,-0.4137,-0.4134,-0.4131,-0.4103,-0.4096,-0.409,0,0,0,0,0,0,-0.42,-0.4206,-0.4216,-0.4191,-0.4188,-0.4191,-0.4176,-0.4187,-0.4179,-0.4182,-0.4194,-0.4194,-0.4168,-0.4168,-0.4185,-0.4139,-0.4161,-0.4157,-0.4141,-0.4134,-0.4129,-0.4129,-0.4211,0,0,0,0,0,-0.4191,-0.418,-0.4185,-0.4162,-0.416,-0.4168,-0.4162,-0.417,-0.4167,-0.4166,-0.4167,-0.4162,-0.415,-0.4142,-0.4132,-0.4101,-0.41,-0.4085,-0.408,-0.4076,-0.4072,-0.4054,-0.4047,-0.412,-0.412,-0.412,0,0,-0.4171,-0.4173,-0.4165,-0.4156,-0.4155,-0.4141,-0.4167,-0.4152,-0.4142,-0.4163,-0.4142,-0.4142,-0.4138,-0.411,-0.4098,-0.4109,-0.4052,-0.4072,-0.4068,-0.4067,-0.405,-0.4043,-0.4037,-0.4118,-0.4118,-0.4119,0,0,-0.4128,-0.4128,-0.4109,-0.4107,-0.4105,-0.411,-0.4106,-0.4107,-0.4108,-0.4087,-0.4102,-0.4089,-0.4069,-0.4065,-0.406,-0.4014,-0.4026,-0.401,-0.3982,-0.3965,-0.3959,-0.3954,-0.3936,-0.393,-0.4006,-0.4006,-0.4006,0,-0.4103,-0.4085,-0.4097,-0.4082,-0.4077,-0.4096,-0.4075,-0.4073,-0.4067,-0.4062,-0.4075,-0.4049,-0.4047,-0.4018,-0.4007,-0.4003,-0.3996,-0.401,-0.3959,-0.3954,-0.3949,-0.3933,-0.3926,-0.4004,-0.4005,-0.4005,-0.4005,0,-0.4054,-0.4041,-0.4025,-0.402,-0.4013,-0.3995,-0.4003,-0.3995,-0.4003,-0.4006,-0.3984,-0.3982,-0.3971,-0.3965,-0.3973,-0.3937,-0.3943,-0.3957,-0.3979,-0.394,-0.3925,-0.3919,-0.4002,-0.4002,-0.4003,-0.4003,0,0,-0.3992,-0.3993,-0.3987,-0.3985,-0.3983,-0.3973,-0.3954,-0.3944,-0.3936,-0.3931,-0.3915,-0.3897,-0.3909,-0.3903,-0.3911,-0.3895,-0.3857,-0.3911,-0.3911,-0.39,-0.3816,-0.3805,-0.3797,-0.3865,-0.3864,-0.3863,-0.3816,0,-0.395,-0.392,-0.393,-0.3899,-0.3887,-0.3904,-0.3888,-0.3884,-0.3887,-0.3875,-0.3877,-0.3864,-0.3882,-0.3878,-0.3864,-0.3865,-0.384,-0.3869,-0.3849,-0.3848,-0.3849,-0.379,-0.3779,-0.3734,-0.381,-0.3809,-0.3808,0,-0.3896,-0.3889,-0.3858,-0.3857,-0.3852,-0.3838,-0.3829,-0.3818,-0.3813,-0.3816,-0.3809,-0.3819,-0.3799,-0.3822,-0.3794,-0.3813,-0.3805,-0.3804,-0.3803,-0.3801,-0.3825,-0.3785,-0.372,-0.3713,-0.3799,-0.38,-0.38,0,-0.3853,-0.3836,-0.3815,-0.3812,-0.3811,-0.38,-0.3799,-0.3796,-0.3788,-0.378,-0.3775,-0.3764,-0.3757,-0.3748,-0.3754,-0.377,-0.3724,-0.3747,-0.3725,-0.3724,-0.3714,-0.3715,-0.3646,-0.371,-0.371,-0.371,-0.3711,0,-0.3805,-0.3784,-0.3795,-0.3782,-0.3759,-0.377,-0.3746,-0.3747,-0.3744,-0.373,-0.3744,-0.373,-0.3739,-0.3725,-0.3729,-0.3705,-0.3702,-0.3702,-0.3704,-0.3701,-0.3701,-0.3696,-0.3699,-0.3709,-0.3709,-0.3709,-0.371,0,-0.3753,-0.376,-0.3738,-0.3738,-0.3738,-0.3721,-0.3721,-0.3707,-0.371,-0.3692,-0.3688,-0.3692,-0.3677,-0.3682,-0.3665,-0.3668,-0.3636,-0.3642,-0.3638,-0.3639,-0.3616,-0.3618,-0.3542,-0.3532,-0.3603,-0.3602,-0.3601,0,-0.3722,-0.3706,-0.3705,-0.3697,-0.3695,-0.3682,-0.3675,-0.3684,-0.3676,-0.3669,-0.3656,-0.3642,-0.3631,-0.3605,-0.3605,-0.3592,-0.3597,-0.3571,-0.3595,-0.3592,-0.3595,-0.3596,-0.3594,-0.3566,-0.3565,-0.3565,-0.3564,0,-0.3664,-0.3668,-0.3658,-0.3648,-0.3639,-0.3632,-0.3625,-0.3618,-0.3626,-0.3616,-0.3601,-0.3592,-0.3575,-0.356,-0.3547,-0.3545,-0.3555,-0.3557,-0.355,-0.3547,-0.3545,-0.3545,-0.3625,-0.3558,-0.3559,-0.3559,-0.356,-0.356,-0.3621,-0.3608,-0.3605,-0.3593,-0.3589,-0.3582,-0.357,-0.3571,-0.3559,-0.3546,-0.3552,-0.3533,-0.3527,-0.3512,-0.3507,-0.3492,-0.3502,-0.3493,-0.3491,-0.3488,-0.3485,-0.3548,-0.349,-0.349,-0.349,-0.349,-0.349,0,-0.3564,-0.3563,-0.3551,-0.3542,-0.3532,-0.3543,-0.3536,-0.3527,-0.3511,-0.3505,-0.3494,-0.3475,-0.346,-0.3459,-0.3445,-0.3433,-0.3437,-0.3428,-0.3429,-0.3428,-0.3477,-0.3484,-0.3425,-0.3425,-0.3425,-0.3425,-0.3425,-0.3425,-0.3533,-0.3511,-0.3514,-0.349,-0.3488,-0.3471,-0.3466,-0.3459,-0.3454,-0.3433,-0.3421,-0.3421,-0.3416,-0.3401,-0.3388,-0.3388,-0.3381,-0.3371,-0.3372,-0.3418,-0.3425,-0.3431,-0.3437,-0.3369,-0.3369,-0.3324,-0.3323,-0.3323]},{"header":{"parameterUnit":"m.s-1","parameterCategory":1,"la1":30.2991,"la2":30.254,"lo1":-89.0895,"lo2":-89.0444,"dx":0.0017,"dy":0.0017,"nx":28,"ny":28,"refTime":"2022-12-05T15:00:00:Z","depth":0,"parameterNumber":3,"parameterNumberName":"V-component_of_WINDS"},"data":[0,0,0,0,0,0,0,0,0,0,0,0,0,0,0,0,0,0,0,0,0,0,0,0,0,0,0,0,0,0,0,0,0,0,0,0,0,0,0,0,0,0,0,0,0,0,0,0,0,0,0,0,0,0,0,0,0,0,0.6908,0.6907,0,0.68,0.6799,0.6797,0.6737,0.6737,0.6736,0.6736,0.6623,0.6621,0.6618,0,0,0,0,0,0,0,0,0,0,0,0,0,0.7063,0.706,0.6908,0.6907,0.6906,0.68,0.6799,0.6797,0.6737,0.6737,0.6736,0.6736,0.6624,0.6621,0.6618,0,0,0,0,0,0,0,0,0,0,0,0,0,0.6979,0.7059,0.6909,0.6863,0.6858,0.68,0.6798,0.6797,0.6737,0.6737,0.6736,0.6736,0.6625,0.6621,0.6617,0.6596,0,0,0.6604,0.6602,0,0,0,0,0,0,0,0,0.6984,0.6973,0.6871,0.6866,0.686,0.6782,0.6811,0.6729,0.6737,0.6783,0.6736,0.6736,0.6676,0.6668,0.6648,0.6591,0.6586,0.6604,0.6601,0.6599,0.6598,0,0,0,0,0,0,0,0.699,0.6978,0.6865,0.687,0.6863,0.6848,0.6835,0.6796,0.6732,0.6779,0.6774,0.6762,0.6673,0.6652,0.6645,0.6584,0.6604,0.66,0.6597,0.6596,0.6506,0.6506,0,0,0,0,0,0,0.7003,0.6983,0.6869,0.6862,0.6923,0.6845,0.6831,0.6807,0.6732,0.6721,0.6762,0.676,0.6659,0.665,0.6641,0.6611,0.6599,0.6595,0.6593,0.6506,0.6506,0.6506,0,0,0,0,0,0,0.7007,0.6993,0.6873,0.6921,0.6905,0.6843,0.6816,0.6805,0.6784,0.672,0.6708,0.6753,0.6659,0.6647,0.6608,0.6607,0.6593,0.659,0.6506,0.6506,0.6506,0.6553,0,0,0,0,0,0,0.7011,0.6995,0.6986,0.6922,0.6902,0.6843,0.6816,0.6803,0.6777,0.6772,0.6708,0.6697,0.6658,0.6615,0.6604,0.6601,0.6586,0.6505,0.6506,0.6506,0.6551,0.6555,0.6558,0,0,0,0,0,0.7017,0.7003,0.6986,0.6973,0.689,0.6843,0.6832,0.6787,0.6777,0.6768,0.6727,0.6699,0.6609,0.6611,0.6598,0.6594,0.6505,0.6506,0.6506,0.655,0.6554,0.6558,0,0,0,0,0,0,0.7068,0.6994,0.6974,0.6939,0.6898,0.6833,0.6819,0.6793,0.6753,0.675,0.6697,0.6683,0.6649,0.6618,0.6622,0.657,0.6554,0.6552,0.6592,0.6596,0.6599,0.6607,0.6583,0,0,0,0,0,0.7076,0.7044,0.698,0.6955,0.6936,0.6882,0.6859,0.6829,0.6783,0.6765,0.6722,0.6679,0.6641,0.6616,0.6578,0.6547,0.6532,0.6538,0.6541,0.6544,0.6543,0.6525,0.6527,0.6507,0.6507,0.6507,0,0,0.709,0.7046,0.7028,0.6965,0.6929,0.6897,0.6867,0.6834,0.6809,0.676,0.6721,0.6688,0.6636,0.6602,0.6585,0.6575,0.6545,0.6545,0.6548,0.6544,0.6525,0.6527,0.6529,0.6508,0.6508,0.6508,0,0,0.71,0.7064,0.7039,0.7005,0.6952,0.6916,0.6911,0.685,0.6826,0.6787,0.6749,0.672,0.6655,0.662,0.6594,0.6593,0.6566,0.6582,0.6599,0.6582,0.6584,0.6585,0.6585,0.6585,0.6581,0.6581,0.6582,0,0.7125,0.7075,0.703,0.6999,0.6972,0.6928,0.6903,0.6872,0.6809,0.6791,0.6782,0.6701,0.6663,0.662,0.662,0.66,0.6592,0.6589,0.6587,0.6588,0.6588,0.6587,0.6588,0.6584,0.6583,0.6583,0.6583,0,0.7108,0.7074,0.7061,0.7003,0.6975,0.6947,0.6898,0.6875,0.6848,0.6813,0.6774,0.6728,0.6679,0.6667,0.664,0.6621,0.6616,0.6598,0.658,0.6593,0.6591,0.6591,0.6587,0.6586,0.6586,0.6585,0,0,0.7145,0.7064,0.7059,0.7033,0.6973,0.6945,0.6917,0.687,0.6852,0.6811,0.6785,0.6733,0.6716,0.6686,0.6655,0.664,0.6643,0.6623,0.6621,0.6628,0.6619,0.6633,0.6633,0.6625,0.6625,0.6625,0.6624,0,0.7146,0.7092,0.7051,0.7013,0.6981,0.694,0.6915,0.6875,0.6843,0.6811,0.6775,0.6739,0.672,0.6702,0.6685,0.6646,0.664,0.6646,0.66,0.6599,0.6613,0.6632,0.6646,0.6647,0.6623,0.6622,0.6622,0,0.7138,0.71,0.7059,0.7004,0.6989,0.6967,0.6922,0.6893,0.6847,0.6825,0.6793,0.6761,0.6729,0.6716,0.667,0.6675,0.6654,0.6633,0.6632,0.6624,0.6611,0.6625,0.6646,0.6646,0.6621,0.6621,0.6621,0,0.7169,0.7108,0.7075,0.7054,0.6988,0.6974,0.6946,0.69,0.6876,0.6836,0.682,0.6778,0.6754,0.6722,0.6679,0.6674,0.6639,0.6622,0.6619,0.662,0.6612,0.6613,0.6629,0.66,0.66,0.66,0.66,0,0.7174,0.715,0.7088,0.7068,0.7041,0.6995,0.6969,0.6938,0.6898,0.6871,0.6833,0.6808,0.6754,0.6723,0.669,0.6657,0.6647,0.6628,0.6619,0.6631,0.6633,0.6615,0.6614,0.66,0.66,0.66,0.66,0,0.7203,0.716,0.7122,0.7064,0.7049,0.7032,0.6982,0.6961,0.6927,0.6894,0.6883,0.6831,0.6792,0.6747,0.6694,0.6672,0.6642,0.6629,0.6657,0.6652,0.6651,0.6652,0.6656,0.6654,0.6628,0.6629,0.6629,0,0.7208,0.7189,0.713,0.7109,0.7083,0.7051,0.7026,0.6981,0.6956,0.6905,0.689,0.6849,0.6814,0.6755,0.6711,0.667,0.6656,0.6661,0.6649,0.6662,0.6655,0.6657,0.6655,0.6663,0.6664,0.6664,0.6664,0,0.7221,0.7202,0.7168,0.7128,0.71,0.7065,0.7029,0.7014,0.6962,0.6937,0.6898,0.6871,0.6817,0.6777,0.6731,0.6702,0.6674,0.6669,0.6665,0.6676,0.6693,0.6684,0.6665,0.6668,0.6668,0.6667,0.6667,0.6667,0.7238,0.722,0.7176,0.7139,0.7108,0.7076,0.7054,0.7018,0.6985,0.6939,0.6915,0.6876,0.6832,0.6768,0.674,0.6709,0.67,0.6696,0.6694,0.6694,0.6697,0.67,0.6701,0.6701,0.6701,0.67,0.67,0,0.7249,0.7219,0.7187,0.7138,0.711,0.7089,0.7048,0.7026,0.6993,0.6955,0.6922,0.6878,0.6839,0.6794,0.6752,0.6736,0.6722,0.6727,0.6727,0.672,0.6708,0.6715,0.6738,0.6738,0.6738,0.6738,0.6738,0.6738,0.7252,0.722,0.7196,0.7148,0.7118,0.7081,0.706,0.703,0.7,0.6952,0.6921,0.6892,0.6851,0.6806,0.677,0.6758,0.6744,0.6752,0.6736,0.6724,0.6721,0.6718,0.6724,0.6749,0.6749,0.675,0.675,0.675]}]]